Charlevoix, MI

9:12 PM EDT on September 29, 2016 (GMT -0400)
Charlevoix Municipal

Weather History for KCVX - March, 2012

Change the Weather History Date:

Tuesday, March 27, 2012

  Actual Average Record
Temperature  
Mean Temperature 40 °F -  
Max Temperature 52 °F 38 °F 52 °F (2012)
Min Temperature 29 °F 29 °F 6 °F (2011)
Degree Days  
Heating Degree Days 24    
Moisture  
Dew Point 12 °F    
Average Humidity 37    
Maximum Humidity 59    
Minimum Humidity 21    
Precipitation  
Precipitation 0.00 in - - ()
Sea Level Pressure  
Sea Level Pressure 30.16 in    
Wind  
Wind Speed 11 mph (SE)    
Max Wind Speed 21 mph    
Max Gust Speed 30 mph    
Visibility 10 miles    
Events Rain    
Averages and records for this station are not official NWS values.
T = Trace of Precipitation, MM = Missing Value Source: NWS Daily Summary

Daily Weather History Graph

Daily Weather History Graph

Search for Another Location

Airport or City:

Trip Planner

Search our weather history database for the weather conditions in past years. The results will help you decide how hot, cold, wet, or windy it might be!

Date:

Astronomy

Mar. 27, 2012 Rise Set
Actual Time 7:29 AM EDT 8:03 PM EDT
Civil Twilight 7:00 AM EDT 8:33 PM EDT
Nautical Twilight 6:25 AM EDT 9:08 PM EDT
Astronomical Twilight 5:49 AM EDT 9:44 PM EDT
Moon 9:46 AM EDT (3/27) 12:25 AM EDT (3/27)
Length of Visible Light 13h 32m
Length of Day
12h 33m
Waxing Crescent, 22% of the Moon is Illuminated
Mar 27
Waxing Crescent
Mar 30
First Quarter
Apr 6
Full
Apr 13
Last Quarter
Apr 21
New

Hourly Weather History & Observations

Time (EDT) Temp. Windchill Dew Point Humidity Pressure Visibility Wind Dir Wind Speed Gust Speed Precip Events Conditions
12:14 AM 32.4 °F 25.3 °F 7.7 °F 36% 30.38 in 10.0 mi ESE 8.1 mph - N/A   Clear
12:35 AM 32.0 °F 24.2 °F 7.9 °F 36% 30.37 in 10.0 mi ESE 9.2 mph - N/A   Clear
12:55 AM 32.0 °F 24.8 °F 9.0 °F 38% 30.36 in 10.0 mi ESE 8.1 mph - N/A   Clear
1:14 AM 31.8 °F 23.9 °F 9.5 °F 39% 30.36 in 10.0 mi ESE 9.2 mph - N/A   Clear
1:35 AM 31.6 °F 24.4 °F 10.8 °F 42% 30.36 in 10.0 mi ESE 8.1 mph - N/A   Clear
1:54 AM 31.5 °F 23.5 °F 14.0 °F 49% 30.36 in 10.0 mi ESE 9.2 mph - N/A   Clear
2:14 AM 31.5 °F 23.5 °F 16.0 °F 53% 30.35 in 10.0 mi SE 9.2 mph - N/A   Clear
2:35 AM 31.1 °F 24.5 °F 16.7 °F 55% 30.34 in 10.0 mi ESE 6.9 mph - N/A   Clear
2:54 AM 30.6 °F 23.1 °F 17.4 °F 58% 30.33 in 10.0 mi ESE 8.1 mph - N/A   Clear
3:15 AM 30.2 °F 22.6 °F 17.2 °F 59% 30.32 in 10.0 mi SE 8.1 mph - N/A   Clear
3:34 AM 30.2 °F 23.4 °F 16.7 °F 57% 30.32 in 10.0 mi SE 6.9 mph - N/A   Clear
3:54 AM 29.8 °F 23.0 °F 16.0 °F 56% 30.32 in 10.0 mi SE 6.9 mph - N/A   Clear
4:15 AM 30.2 °F 21.3 °F 13.6 °F 50% 30.30 in 10.0 mi ESE 10.4 mph - N/A   Clear
4:34 AM 30.6 °F 21.8 °F 10.0 °F 42% 30.29 in 10.0 mi SE 10.4 mph - N/A   Clear
4:54 AM 30.9 °F 22.8 °F 8.6 °F 39% 30.28 in 10.0 mi SE 9.2 mph - N/A   Clear
5:15 AM 31.1 °F 21.4 °F 8.4 °F 39% 30.28 in 10.0 mi SE 12.7 mph 16.1 mph N/A   Clear
5:34 AM 31.1 °F 23.1 °F 9.0 °F 40% 30.28 in 10.0 mi SE 9.2 mph - N/A   Clear
5:55 AM 31.1 °F 24.5 °F 9.7 °F 41% 30.28 in 10.0 mi SE 6.9 mph - N/A   Clear
6:15 AM 31.3 °F 23.9 °F 10.9 °F 43% 30.28 in 10.0 mi SE 8.1 mph - N/A   Scattered Clouds
6:34 AM 31.6 °F 26.0 °F 12.6 °F 45% 30.29 in 10.0 mi SSE 5.8 mph - N/A   Mostly Cloudy
6:55 AM 32.0 °F 24.8 °F 13.1 °F 46% 30.28 in 10.0 mi SE 8.1 mph - N/A   Overcast
7:14 AM 32.0 °F 24.8 °F 13.6 °F 47% 30.28 in 10.0 mi SE 8.1 mph - N/A   Overcast
7:35 AM 32.0 °F 24.8 °F 16.5 °F 53% 30.29 in 10.0 mi SE 8.1 mph - N/A Rain Light Rain
7:54 AM 32.0 °F 24.2 °F 16.5 °F 53% 30.28 in 10.0 mi SSE 9.2 mph - N/A   Overcast
8:15 AM 32.5 °F 23.7 °F 14.9 °F 48% 30.25 in 10.0 mi SE 11.5 mph 21.9 mph N/A   Overcast
8:35 AM 33.1 °F 23.9 °F 12.9 °F 43% 30.24 in 10.0 mi SE 12.7 mph 20.7 mph N/A   Overcast
8:54 AM 33.3 °F 25.1 °F 10.2 °F 38% 30.23 in 10.0 mi SE 10.4 mph 17.3 mph N/A   Overcast
9:15 AM 33.8 °F 24.8 °F 7.9 °F 34% 30.22 in 10.0 mi SE 12.7 mph 19.6 mph N/A   Overcast
9:35 AM 34.2 °F 25.2 °F 7.2 °F 32% 30.22 in 10.0 mi SE 12.7 mph 21.9 mph N/A   Overcast
9:54 AM 34.7 °F 24.0 °F 6.3 °F 30% 30.21 in 10.0 mi SSE 18.4 mph 24.2 mph N/A   Overcast
10:15 AM 35.1 °F 25.5 °F 7.0 °F 31% 30.19 in 10.0 mi SE 15.0 mph 21.9 mph N/A   Overcast
10:35 AM 35.6 °F 25.9 °F 7.7 °F 31% 30.17 in 10.0 mi SE 16.1 mph 25.3 mph N/A   Overcast
10:54 AM 36.5 °F 27.8 °F 8.1 °F 31% 30.16 in 10.0 mi SE 13.8 mph 19.6 mph N/A   Overcast
11:15 AM 37.4 °F 28.5 °F 7.9 °F 29% 30.14 in 10.0 mi SE 15.0 mph 24.2 mph N/A   Overcast
11:34 AM 37.8 °F 28.0 °F 8.1 °F 29% 30.12 in 10.0 mi SSE 18.4 mph 24.2 mph N/A   Overcast
11:54 AM 38.3 °F 29.3 °F 8.6 °F 29% 30.09 in 10.0 mi SE 16.1 mph 21.9 mph N/A   Overcast
12:15 PM 39.6 °F 31.0 °F 8.8 °F 28% 30.05 in 10.0 mi SE 16.1 mph 26.5 mph N/A   Overcast
12:34 PM 39.7 °F 30.9 °F 9.0 °F 28% 30.03 in 10.0 mi SE 17.3 mph 26.5 mph N/A   Overcast
12:54 PM 40.5 °F 30.9 °F 7.5 °F 26% 30.01 in 10.0 mi SE 20.7 mph 29.9 mph N/A   Overcast
1:15 PM 41.9 °F 33.7 °F 7.7 °F 25% 30.00 in 10.0 mi SSE 17.3 mph 25.3 mph N/A   Overcast
1:34 PM 43.9 °F 36.2 °F 8.1 °F 23% 29.97 in 10.0 mi SE 17.3 mph 25.3 mph N/A   Overcast
1:55 PM 45.5 °F 38.1 °F 8.8 °F 22% 29.93 in 10.0 mi SE 18.4 mph 26.5 mph N/A   Overcast
2:15 PM 47.3 °F - 8.4 °F 21% 29.91 in 10.0 mi SE 17.3 mph 29.9 mph N/A   Overcast
2:34 PM 47.3 °F - 9.7 °F 22% 29.91 in 10.0 mi SSE 12.7 mph 25.3 mph N/A   Overcast
2:55 PM 48.2 °F - 11.7 °F 23% 29.89 in 10.0 mi SSE 19.6 mph 25.3 mph N/A   Overcast
3:14 PM 48.9 °F - 12.9 °F 24% 29.88 in 10.0 mi SSE 17.3 mph 28.8 mph N/A   Overcast
3:34 PM 49.1 °F - 14.9 °F 26% 29.87 in 10.0 mi South 20.7 mph 28.8 mph N/A   Overcast
3:55 PM 49.5 °F - 17.6 °F 28% 29.84 in 10.0 mi SSE 12.7 mph 25.3 mph N/A   Overcast
4:14 PM 50.2 °F - 19.6 °F 30% 29.83 in 10.0 mi South 12.7 mph 20.7 mph N/A   Overcast
4:34 PM 50.5 °F - 21.4 °F 32% 29.81 in 10.0 mi South 17.3 mph 24.2 mph N/A   Overcast
4:55 PM 52.0 °F - 23.4 °F 33% 29.78 in 10.0 mi South 11.5 mph 26.5 mph N/A   Mostly Cloudy
5:14 PM 52.2 °F - 24.6 °F 34% 29.78 in 10.0 mi South 8.1 mph - N/A   Overcast
5:34 PM 52.9 °F - 25.9 °F 35% 29.79 in 10.0 mi SSW 11.5 mph 25.3 mph N/A   Overcast
5:54 PM 52.7 °F - 26.1 °F 36% 29.78 in 10.0 mi SSW 10.4 mph 17.3 mph N/A   Overcast
6:14 PM 52.9 °F - 27.1 °F 37% 29.76 in 10.0 mi South 12.7 mph 16.1 mph N/A   Overcast
6:35 PM 54.0 °F - 28.2 °F 37% 29.74 in 10.0 mi South 11.5 mph 20.7 mph N/A   Overcast
6:54 PM 54.1 °F - 29.1 °F 38% 29.73 in 10.0 mi South 12.7 mph 20.7 mph N/A   Overcast
7:14 PM 54.5 °F - 29.8 °F 39% 29.72 in 10.0 mi South 15.0 mph 19.6 mph N/A   Overcast
7:35 PM 54.5 °F - 30.2 °F 39% 29.70 in 10.0 mi South 13.8 mph 21.9 mph N/A   Overcast
7:54 PM 55.0 °F - 30.2 °F 39% 29.68 in 10.0 mi SSE 15.0 mph 24.2 mph N/A   Overcast
8:15 PM 55.4 °F - 30.9 °F 39% 29.67 in 10.0 mi South 11.5 mph 17.3 mph N/A   Overcast
8:35 PM 55.6 °F - 31.1 °F 39% 29.66 in 10.0 mi South 13.8 mph 20.7 mph N/A   Overcast
8:54 PM 55.6 °F - 31.1 °F 39% 29.65 in 10.0 mi South 16.1 mph 21.9 mph N/A   Overcast
9:15 PM 55.0 °F - 31.3 °F 40% 29.64 in 10.0 mi South 12.7 mph 25.3 mph N/A   Scattered Clouds
9:35 PM 54.9 °F - 32.0 °F 42% 29.63 in 10.0 mi South 13.8 mph 25.3 mph N/A   Clear
9:54 PM 55.4 °F - 32.0 °F 41% 29.62 in 10.0 mi South 15.0 mph 25.3 mph N/A   Scattered Clouds
10:15 PM 55.2 °F - 32.4 °F 42% 29.62 in 10.0 mi South 16.1 mph 25.3 mph N/A   Clear
10:34 PM 55.4 °F - 33.1 °F 43% 29.61 in 10.0 mi South 17.3 mph 21.9 mph N/A   Scattered Clouds
10:55 PM 55.9 °F - 34.0 °F 44% 29.60 in 10.0 mi South 13.8 mph 24.2 mph N/A   Scattered Clouds
11:15 PM 56.3 °F - 34.9 °F 45% 29.59 in 10.0 mi South 15.0 mph 23.0 mph N/A   Clear
11:34 PM 57.0 °F - 35.6 °F 45% 29.58 in 10.0 mi South 15.0 mph 24.2 mph N/A   Scattered Clouds
11:55 PM 58.1 °F - 36.7 °F 45% 29.57 in 10.0 mi South 13.8 mph 23.0 mph N/A   Mostly Cloudy